Regional Weather Roundup
Issued by NWS

Home | Current Version | Previous Version | Graphics & Text | Print | Product List | Glossary Off
Versions: 1 2 3 4 5 6 7 8 9 10 11 12 13 14 15 16 17 18 19 20 21 22 23 24 25 26 27 28 29 30 31 32 33 34 35 36 37 38 39 40 41 42 43 44 45 46 47 48 49 50

000
ASUS43 KMKX 041820
RWRWI

WISCONSIN REGIONAL WEATHER ROUNDUP
NATIONAL WEATHER SERVICE MILWAUKEE/SULLIVAN WI
1200 PM CST WED MAR 04 2015

NOTE: "FAIR" INDICATES FEW OR NO CLOUDS BELOW 12,000 FEET WITH NO
SIGNIFICANT WEATHER AND/OR OBSTRUCTIONS TO VISIBILITY.

WIZ001-002-006>008-014>016-023>028-041900-
NORTHWEST WISCONSIN

CITY           SKY/WX    TMP DP  RH WIND       PRES   REMARKS
SUPERIOR ARPT  CLOUDY     4 -10  51 NW13G22   30.18R WCI -12
6HR MIN TEMP: -11; 6HR MAX TEMP:   5;

ASHLAND        PTSUNNY    5 -11  47 W15G22    30.13R WCI -13
6HR MIN TEMP:  -5; 6HR MAX TEMP:   5;

HAYWARD        CLOUDY     4  -9  55 W7        30.12R WCI  -8
6HR MIN TEMP:  -5; 6HR MAX TEMP:   3;

SIREN          FAIR       6 -11  46 W13G18    30.18R WCI -11
6HR MIN TEMP:  -6; 6HR MAX TEMP:   6;

CUMBERLAND     LGT SNOW   5 -11  47 W17G24    30.14R WCI -14
RICE LAKE      FAIR       7 -10  46 W13       30.18R WCI -10
6HR MIN TEMP:  -6; 6HR MAX TEMP:   7;

CHETEK         FAIR       7 -11  44 MISG      30.17R
6HR MIN TEMP:  -4; 6HR MAX TEMP:   7;

LADYSMITH      HAZE       7  -9  47 W17       30.13R VSB 1   WCI -12
6HR MIN TEMP:  -5; 6HR MAX TEMP:   7;

EAU CLAIRE     FAIR       8  -8  48 W15       30.19R WCI  -9
6HR MIN TEMP:  -2; 6HR MAX TEMP:   8;

MENOMONIE      FAIR      10  -8  45 W16G26    30.21R WCI  -8
6HR MIN TEMP:   0; 6HR MAX TEMP:  10;

NEW RICHMOND   FAIR       9  -8  45 W17       30.20R WCI -10
6HR MIN TEMP:  -5; 6HR MAX TEMP:   9;

OSCEOLA        FAIR       9 -10  41 NW14G22   30.24R WCI  -7
6HR MIN TEMP:  -4; 6HR MAX TEMP:   9;

$$

WIZ003>005-009-010-017-018-041900-
NORTH CENTRAL WISCONSIN

CITY           SKY/WX    TMP DP  RH WIND       PRES   REMARKS
MANITOWISH WTR CLOUDY     1 -11  56 W15G21    30.01R WCI -18
6HR MIN TEMP:  -7; 6HR MAX TEMP:   1;

ARBOR VITAE    MOSUNNY    4  -9  54 NW12G18   30.01R WCI -12
6HR MIN TEMP:  -3; 6HR MAX TEMP:   4;

WOODRUFF       MOSUNNY    4  -9  54 NW12G18   30.01R WCI -12
6HR MIN TEMP:  -3; 6HR MAX TEMP:   4;

RHINELANDER    MOSUNNY    4 -11  50 NW15G22   30.00R WCI -14
6HR MIN TEMP:  -4; 6HR MAX TEMP:   4;

EAGLE RIVER    MOSUNNY    4 -13  46 W14G22    29.98R WCI -14
6HR MIN TEMP:  -4; 6HR MAX TEMP:   4;

LAND O LAKES   CLOUDY     5 -11  47 W14G20    29.98R WCI -12
6HR MIN TEMP:  -3; 6HR MAX TEMP:   5;

PHILLIPS       PTSUNNY    4 -12  47 W10G20    30.04R WCI -11
6HR MIN TEMP:  -6; 6HR MAX TEMP:   5;

TOMAHAWK       MOSUNNY    6 -10  46 W13       30.04R WCI -10
6HR MIN TEMP:  -4; 6HR MAX TEMP:   6;

MEDFORD        FAIR       6 -10  48 W17G26    30.07R WCI -13
6HR MIN TEMP:  -3; 6HR MAX TEMP:   6;

MERRILL        FAIR       9  -9  43 W12G18    30.06R HAZE    WCI  -6
6HR MIN TEMP:  -2; 6HR MAX TEMP:   9;

$$

WIZ029-030-035-036-043>047-041900-
CENTRAL WISCONSIN

CITY           SKY/WX    TMP DP  RH WIND       PRES   REMARKS
WAUSAU         FAIR       6  -7  54 W20       30.08R WCI -14
6HR MIN TEMP:  -1; 6HR MAX TEMP:   6;

MOSINEE        SUNNY      7  -8  51 W14G24    30.11R WCI -10
MARSHFIELD     FAIR       7  -9  48 NW16      30.12R WCI -11
6HR MIN TEMP:   1; 6HR MAX TEMP:   7;

STEVENS POINT  FAIR       7  -9  48 W10G20    30.13R WCI  -8
6HR MIN TEMP:   1; 6HR MAX TEMP:   7;

WAUPACA        MOSUNNY   14  -4  44 W14G24    30.14R WCI  -1
6HR MIN TEMP:   7; 6HR MAX TEMP:  14;

WAUTOMA        SUNNY     14  -4  44 NW13      30.15S WCI   0
6HR MIN TEMP:   6; 6HR MAX TEMP:  14;

WISC RAPIDS    FAIR      11  -8  42 NW17G24   30.15R WCI  -6
6HR MIN TEMP:   2; 6HR MAX TEMP:  11;

CAMP DOUGLAS   SUNNY     12  -4  48 W15G22    30.17S WCI  -4
$$

WIZ011>013-019>022-031-037>040-048>050-041900-
NORTHEAST WISCONSIN

CITY           SKY/WX    TMP DP  RH WIND       PRES   REMARKS
ANTIGO         SUNNY      6  -8  51 NW14G23   30.02R WCI -11
6HR MIN TEMP:  -2; 6HR MAX TEMP:   6;

SHAWANO        SUNNY     14  -7  38 W13G18    30.10R WCI   0
6HR MIN TEMP:   8; 6HR MAX TEMP:  14;

OCONTO         SUNNY     12  -6  43 W9G23     30.09R WCI   0
6HR MIN TEMP:   7; 6HR MAX TEMP:  12;

STURGEON BAY   SUNNY     10  -6  48 W16       30.08R WCI  -7
6HR MIN TEMP:   7; 6HR MAX TEMP:  10;

GREEN BAY      SUNNY     12  -3  51 W16G26    30.11R WCI  -5
6HR MIN TEMP:   8; 6HR MAX TEMP:  12;

MANITOWOC      SUNNY     15  -1  49 W22       30.10R WCI  -3
6HR MIN TEMP:  11; 6HR MAX TEMP:  15;

APPLETON       SUNNY     10  -6  48 W16G25    30.11  WCI  -7
CLINTONVILLE   SUNNY     12  -6  44 W13G23    30.11R WCI  -3
OSHKOSH        SUNNY     13  -2  51 NW16      30.12R WCI  -3
6HR MIN TEMP:   7; 6HR MAX TEMP:  13;

$$

WIZ032>034-041-042-053>061-041900-
SOUTHWEST WISCONSIN

CITY           SKY/WX    TMP DP  RH WIND       PRES   REMARKS
LA CROSSE      FAIR      14  -3  47 NW10      30.24S WCI   1
6HR MIN TEMP:   5; 6HR MAX TEMP:  14;

SPARTA         FAIR      13  -7  41 W8G20     30.21S WCI   1
6HR MIN TEMP:   4; 6HR MAX TEMP:  13;

VIROQUA        FAIR      11  -5  49 NW14      30.17S WCI  -5
6HR MIN TEMP:   3; 6HR MAX TEMP:  11;

BOSCOBEL       FAIR      14  -4  44 NW13      30.24S WCI   0
6HR MIN TEMP:   8; 6HR MAX TEMP:  14; 6HR PCP: TRACE;

PRAIRIE DU CHI FAIR      13  -5  45 W10       30.26S WCI  -1
6HR MIN TEMP:   7; 6HR MAX TEMP:  13;

PLATTEVILLE    FAIR      14  -1  51 W15G21    30.20R WCI  -2
6HR MIN TEMP:   6; 6HR MAX TEMP:  14;

$$

WIZ056-057-062-063-064-067-068-041900-
SOUTH CENTRAL WISCONSIN

CITY           SKY/WX    TMP DP  RH WIND       PRES   REMARKS
REEDSBURG      FAIR      12  -3  51 W15       30.17F WCI  -4
6HR MIN TEMP:   7; 6HR MAX TEMP:  12;

BARABOO/DELLS  FAIR      13  -3  48 W15       30.15F WCI  -3
6HR MIN TEMP:   7; 6HR MAX TEMP:  13;

LONE ROCK      FAIR      14  -5  42 NW15      30.21R WCI  -1
6HR MIN TEMP:   8; 6HR MAX TEMP:  14;

MINERAL POINT  FAIR      16  -4  41 W15       30.17R WCI   1
MADISON        FAIR      16  -2  45 NW14G20   30.16R WCI   2
6HR MIN TEMP:  10; 6HR MAX TEMP:  16;

MIDDLETON      FAIR      18  -4  38 NW15      30.17R WCI   4
6HR MIN TEMP:  11; 6HR MAX TEMP:  18;

WATERTOWN      MOSUNNY   16   3  56 W15       30.15R WCI   1
6HR MIN TEMP:   9; 6HR MAX TEMP:  16;

MONROE         FAIR      18   1  49 NW15      30.15R WCI   3
JANESVILLE     SUNNY     18   1  49 NW15      30.17R WCI   3
$$

WIZ051-052-058>065-066-070>072-041900-
SOUTHEAST WISCONSIN

CITY           SKY/WX    TMP DP  RH WIND       PRES   REMARKS
MILWAUKEE      MOSUNNY   18   0  45 W15G23    30.13R WCI   4
6HR MIN TEMP:  14; 6HR MAX TEMP:  18;

WAUKESHA       SUNNY     12  -2  52 W16G23    30.13R WCI  -4
MILWAUKEE/TIMM SUNNY     16  -2  45 W10       30.14R WCI   3
RACINE         SUNNY     18   0  45 W12G22    30.14R WCI   5
6HR MIN TEMP:  15; 6HR MAX TEMP:  18;

BURLINGTON     SUNNY     16   1  51 W10       30.14S WCI   4
6HR MIN TEMP:  11; 6HR MAX TEMP:  16;

KENOSHA        SUNNY     17   1  49 NW17      30.13R WCI   1
6HR MIN TEMP:  15; 6HR MAX TEMP:  17;

FOND DU LAC    SUNNY     14  -2  49 W22G30    30.12R WCI  -4
6HR MIN TEMP:   9; 6HR MAX TEMP:  14;

SHEBOYGAN      SUNNY     13  -2  51 NW18      30.10R WCI  -4
6HR MIN TEMP:  10; 6HR MAX TEMP:  13;

WEST BEND      SUNNY     14  -2  48 W15G21    30.11S WCI  -1
JUNEAU         MOSUNNY   13  -2  50 W13G22    30.15R WCI  -1
6HR MIN TEMP:   8; 6HR MAX TEMP:  14;

$$

LSZ147-162-041900-
LAKE SUPERIOR

STATION/POSITION TIME  TEMP    WIND        PRES    WAVE
                       AIR SEA DIR/SP/G            HT/PER
                 (UTC) (F)     (DEG/KT/KT) (MB)    (FT/S)
DEVILS ISLAND    1800    3     280/ 20/ 27 1021.5R
PORT WING        1740    3     260/ 12/ 18 1021.0R
SAXON HARBOR     1700    4     300/ 14/ 21 1019.6
$$

LMZ867-665-643>646-041900-
LAKE MICHIGAN

STATION/POSITION TIME  TEMP    WIND        PRES    WAVE
                       AIR SEA DIR/SP/G            HT/PER



USA.gov is the U.S. government's official web portal to all federal, state and local government web resources and services.